| time (UTC) | temp C | wind direction | speed KPH | gust KPH | rain 1hr cm | rain 24hr cm | rain mn cm | humidity % | barometer mb |
| 20260901141344 | 14 | 255 | 0.0 | 0.0 | 0.00 | 0.00 | 0.00 | 96 | |
| 20260901141142 | 14 | 255 | 0.0 | 1.6 | 0.00 | 0.00 | 0.00 | 96 | |
| 20260901140940 | 14 | 255 | 0.0 | 1.6 | 0.00 | 0.00 | 0.00 | 96 | |
| 20260901140740 | 14 | 255 | 0.0 | 0.0 | 0.00 | 0.00 | 0.00 | 96 | |
| 20260901140335 | 14 | 84 | 0.0 | 0.0 | 0.00 | 0.00 | 0.00 | 96 | |
| 20260901140133 | 14 | 84 | 0.0 | 0.0 | 0.00 | 0.00 | 0.00 | 96 | |
| 20260901135729 | 14 | 84 | 0.0 | 0.0 | 0.00 | 0.00 | 0.00 | 96 | |
| 20260901135529 | 14 | 84 | 0.0 | 0.0 | 0.00 | 0.00 | 0.00 | 96 | |
| 20260901135325 | 14 | 84 | 0.0 | 0.0 | 0.00 | 0.00 | 0.00 | 96 | |
| 20260901135123 | 14 | 84 | 0.0 | 0.0 | 0.00 | 0.00 | 0.00 | 96 | |
| 20260901134921 | 14 | 84 | 0.0 | 0.0 | 0.00 | 0.00 | 0.00 | 96 | |
| 20260901134720 | 13 | 84 | 0.0 | 0.0 | 0.00 | 0.00 | 0.00 | 96 | |
| 20260901134518 | 13 | 84 | 0.0 | 0.0 | 0.00 | 0.00 | 0.00 | 96 | |
| 20260901134316 | 13 | 84 | 0.0 | 0.0 | 0.00 | 0.00 | 0.00 | 96 | |
| 20260901134114 | 13 | 84 | 0.0 | 6.4 | 0.00 | 0.00 | 0.00 | 96 | |
| 20260901133912 | 13 | 84 | 0.0 | 6.4 | 0.00 | 0.00 | 0.00 | 96 | |
| 20260901133710 | 13 | 84 | 0.0 | 6.4 | 0.00 | 0.00 | 0.00 | 96 | |
| 20260901133508 | 13 | 84 | 0.0 | 6.4 | 0.00 | 0.00 | 0.00 | 96 | |
| 20260901133306 | 13 | 60 | 1.6 | 6.4 | 0.00 | 0.00 | 0.00 | 95 | |
| 20260901133104 | 13 | 75 | 1.6 | 0.0 | 0.00 | 0.00 | 0.00 | 96 | |
| 20260901132902 | 13 | 50 | 0.0 | 0.0 | 0.00 | 0.00 | 0.00 | 96 | |
| 20260901132700 | 13 | 50 | 0.0 | 4.8 | 0.00 | 0.00 | 0.00 | 95 | |
| 20260901132459 | 13 | 50 | 0.0 | 4.8 | 0.00 | 0.00 | 0.00 | 95 | |
| 20260901132257 | 13 | 50 | 0.0 | 4.8 | 0.00 | 0.00 | 0.00 | 95 | |
| 20260901132055 | 13 | 63 | 0.0 | 6.4 | 0.00 | 0.00 | 0.00 | 95 | |
| 20260901131853 | 13 | 75 | 0.0 | 6.4 | 0.00 | 0.00 | 0.00 | 95 | |
| 20260901131651 | 13 | 94 | 1.6 | 1.6 | 0.00 | 0.00 | 0.00 | 95 | |
| 20260901131247 | 13 | 45 | 0.0 | 1.6 | 0.00 | 0.00 | 0.00 | 95 | |
| 20260901131045 | 13 | 281 | 0.0 | 0.0 | 0.00 | 0.00 | 0.00 | 95 | |
| 20260901130843 | 13 | 281 | 0.0 | 0.0 | 0.00 | 0.00 | 0.00 | 95 | |
| 20260901130641 | 13 | 281 | 0.0 | 0.0 | 0.00 | 0.00 | 0.00 | 95 | |
| 20260901130439 | 13 | 281 | 0.0 | 0.0 | 0.00 | 0.00 | 0.00 | 95 | |
| 20260901130238 | 13 | 281 | 0.0 | 0.0 | 0.00 | 0.00 | 0.00 | 95 | |
| 20260901130036 | 13 | 281 | 0.0 | 0.0 | 0.00 | 0.00 | 0.00 | 95 | |
| 20260901125834 | 13 | 281 | 0.0 | 0.0 | 0.00 | 0.00 | 0.00 | 95 | |
| 20260901125632 | 13 | 281 | 0.0 | 0.0 | 0.00 | 0.00 | 0.00 | 95 | |
| 20260901125430 | 13 | 281 | 0.0 | 0.0 | 0.00 | 0.00 | 0.00 | 95 | |
| 20260901125026 | 13 | 281 | 0.0 | 0.0 | 0.00 | 0.00 | 0.00 | 95 | |
| 20260901124824 | 13 | 281 | 0.0 | 0.0 | 0.00 | 0.00 | 0.00 | 95 | |
| 20260901124622 | 13 | 281 | 0.0 | 0.0 | 0.00 | 0.00 | 0.00 | 95 | |
| 20260901124420 | 13 | 281 | 0.0 | 0.0 | 0.00 | 0.00 | 0.00 | 95 | |
| 20260901124218 | 13 | 281 | 0.0 | 0.0 | 0.00 | 0.00 | 0.00 | 95 | |
| 20260901124017 | 13 | 281 | 0.0 | 0.0 | 0.00 | 0.00 | 0.00 | 95 | |
| 20260901123815 | 13 | 281 | 0.0 | 0.0 | 0.00 | 0.00 | 0.00 | 96 | |
| 20260901123613 | 13 | 281 | 0.0 | 0.0 | 0.00 | 0.00 | 0.00 | 96 | |
| 20260901123411 | 13 | 281 | 0.0 | 0.0 | 0.00 | 0.00 | 0.00 | 96 | |
| 20260901123209 | 13 | 281 | 0.0 | 0.0 | 0.00 | 0.00 | 0.00 | 95 | |
| 20260901123007 | 13 | 281 | 0.0 | 0.0 | 0.00 | 0.00 | 0.00 | 95 | |
| 20260901122805 | 12 | 281 | 0.0 | 0.0 | 0.00 | 0.00 | 0.00 | 95 | |
| 20260901122603 | 12 | 281 | 0.0 | 0.0 | 0.00 | 0.00 | 0.00 | 95 | |
| 20260901122401 | 12 | 281 | 0.0 | 0.0 | 0.00 | 0.00 | 0.00 | 95 | |
| 20260901122159 | 12 | 281 | 0.0 | 0.0 | 0.00 | 0.00 | 0.00 | 95 | |
| 20260901121959 | 13 | 281 | 0.0 | 0.0 | 0.00 | 0.00 | 0.00 | 95 | |
| 20260901121756 | 13 | 281 | 0.0 | 0.0 | 0.00 | 0.00 | 0.00 | 95 | |
| 20260901121554 | 12 | 281 | 0.0 | 0.0 | 0.00 | 0.00 | 0.00 | 95 | |
| 20260901121352 | 13 | 281 | 0.0 | 0.0 | 0.00 | 0.00 | 0.00 | 95 | |
| 20260901121150 | 13 | 281 | 0.0 | 0.0 | 0.00 | 0.00 | 0.00 | 95 | |
| 20260901120948 | 13 | 281 | 0.0 | 0.0 | 0.00 | 0.00 | 0.00 | 95 | |
| 20260901120746 | 13 | 281 | 0.0 | 0.0 | 0.00 | 0.00 | 0.00 | 95 | |
| 20260901120544 | 13 | 281 | 0.0 | 0.0 | 0.00 | 0.00 | 0.00 | 95 | |
| 20260901120342 | 13 | 281 | 0.0 | 0.0 | 0.00 | 0.00 | 0.00 | 95 | |
| 20260901115737 | 13 | 281 | 0.0 | 4.8 | 0.00 | 0.00 | 0.00 | 95 | |
| 20260901115333 | 13 | 281 | 0.0 | 4.8 | 0.00 | 0.00 | 0.00 | 95 | |
| 20260901115131 | 13 | 281 | 0.0 | 6.4 | 0.00 | 0.00 | 0.00 | 95 | |
| 20260901114929 | 13 | 298 | 1.6 | 6.4 | 0.00 | 0.00 | 0.00 | 95 | |
| 20260901114727 | 13 | 305 | 3.2 | 3.2 | 0.00 | 0.00 | 0.00 | 95 | |
| 20260901114525 | 13 | 282 | 3.2 | 3.2 | 0.00 | 0.00 | 0.00 | 95 | |
| 20260901114323 | 13 | 296 | 1.6 | 3.2 | 0.00 | 0.00 | 0.00 | 95 | |
| 20260901114121 | 13 | 296 | 0.0 | 6.4 | 0.00 | 0.00 | 0.00 | 95 | |
| 20260901113920 | 13 | 296 | 0.0 | 6.4 | 0.00 | 0.00 | 0.00 | 95 | |
| 20260901113718 | 13 | 298 | 3.2 | 11.3 | 0.00 | 0.00 | 0.00 | 95 | |
| 20260901113516 | 13 | 293 | 1.6 | 11.3 | 0.00 | 0.00 | 0.00 | 95 | |
| 20260901113314 | 13 | 309 | 0.0 | 11.3 | 0.00 | 0.00 | 0.00 | 95 | |
| 20260901113112 | 13 | 288 | 9.7 | 8.0 | 0.00 | 0.00 | 0.00 | 95 | |
| 20260901112910 | 13 | 302 | 4.8 | 8.0 | 0.00 | 0.00 | 0.00 | 95 | |
| 20260901112708 | 13 | 303 | 6.4 | 8.0 | 0.00 | 0.00 | 0.00 | 96 | |
| 20260901112506 | 13 | 303 | 4.8 | 8.0 | 0.00 | 0.00 | 0.00 | 95 | |
| 20260901112306 | 13 | 312 | 3.2 | 8.0 | 0.00 | 0.00 | 0.00 | 95 | |
| 20260901112102 | 13 | 319 | 4.8 | 6.4 | 0.00 | 0.00 | 0.00 | 95 | |
| 20260901111900 | 13 | 293 | 6.4 | 6.4 | 0.00 | 0.00 | 0.00 | 95 | |
| 20260901111659 | 13 | 293 | 6.4 | 8.0 | 0.00 | 0.00 | 0.00 | 95 | |
| 20260901111457 | 13 | 285 | 4.8 | 8.0 | 0.00 | 0.00 | 0.00 | 95 | |
| 20260901111255 | 13 | 277 | 4.8 | 8.0 | 0.00 | 0.00 | 0.00 | 95 | |
| 20260901110851 | 13 | 298 | 6.4 | 6.4 | 0.00 | 0.00 | 0.00 | 95 | |
| 20260901110649 | 13 | 302 | 6.4 | 6.4 | 0.00 | 0.00 | 0.00 | 94 | |
| 20260901110447 | 13 | 285 | 6.4 | 6.4 | 0.00 | 0.00 | 0.00 | 93 | |
| 20260901110245 | 13 | 289 | 4.8 | 0.0 | 0.00 | 0.00 | 0.00 | 93 | |
| 20260901110043 | 13 | 278 | 6.4 | 0.0 | 0.00 | 0.00 | 0.00 | 93 | |
| 20260901105841 | 13 | 26 | 0.0 | 0.0 | 0.00 | 0.00 | 0.00 | 94 | |
| 20260901105641 | 13 | 26 | 0.0 | 0.0 | 0.00 | 0.00 | 0.00 | 94 | |
| 20260901105236 | 13 | 26 | 0.0 | 0.0 | 0.00 | 0.00 | 0.00 | 93 | |
| 20260901105034 | 13 | 26 | 0.0 | 0.0 | 0.00 | 0.00 | 0.00 | 93 | |
| 20260901104832 | 13 | 26 | 0.0 | 0.0 | 0.00 | 0.00 | 0.00 | 93 | |
| 20260901104630 | 13 | 26 | 0.0 | 0.0 | 0.00 | 0.00 | 0.00 | 93 | |
| 20260901104428 | 13 | 26 | 0.0 | 0.0 | 0.00 | 0.00 | 0.00 | 93 | |
| 20260901104228 | 13 | 26 | 0.0 | 0.0 | 0.00 | 0.00 | 0.00 | 93 | |
| 20260901104024 | 13 | 26 | 0.0 | 0.0 | 0.00 | 0.00 | 0.00 | 93 | |
| 20260901103822 | 13 | 26 | 0.0 | 0.0 | 0.00 | 0.00 | 0.00 | 93 | |
| 20260901103622 | 13 | 26 | 0.0 | 0.0 | 0.00 | 0.00 | 0.00 | 93 | |
| 20260901103419 | 13 | 26 | 0.0 | 0.0 | 0.00 | 0.00 | 0.00 | 93 | |
| 20260901103217 | 13 | 26 | 0.0 | 0.0 | 0.00 | 0.00 | 0.00 | 93 | |
| 20260901103015 | 13 | 26 | 0.0 | 0.0 | 0.00 | 0.00 | 0.00 | 93 | |
| 20260901102813 | 13 | 26 | 0.0 | 0.0 | 0.00 | 0.00 | 0.00 | 93 | |
| 20260901102611 | 13 | 26 | 0.0 | 1.6 | 0.00 | 0.00 | 0.00 | 93 | |
| 20260901102409 | 13 | 26 | 0.0 | 1.6 | 0.00 | 0.00 | 0.00 | 93 | |
| 20260901102207 | 13 | 26 | 0.0 | 0.0 | 0.00 | 0.00 | 0.00 | 93 | |
| 20260901102005 | 13 | 49 | 0.0 | 0.0 | 0.00 | 0.00 | 0.00 | 93 | |
| 20260901101803 | 13 | 64 | 0.0 | 0.0 | 0.00 | 0.00 | 0.00 | 93 | |
| 20260901101400 | 13 | 64 | 0.0 | 0.0 | 0.00 | 0.00 | 0.00 | 93 | |
| 20260901101158 | 13 | 64 | 0.0 | 1.6 | 0.00 | 0.00 | 0.00 | 93 | |
| 20260901100956 | 13 | 64 | 0.0 | 1.6 | 0.00 | 0.00 | 0.00 | 93 | |
| 20260901100754 | 13 | 64 | 0.0 | 1.6 | 0.00 | 0.00 | 0.00 | 92 | |
| 20260901100554 | 13 | 64 | 0.0 | 0.0 | 0.00 | 0.00 | 0.00 | 92 | |
| 20260901100350 | 13 | 300 | 0.0 | 0.0 | 0.00 | 0.00 | 0.00 | 92 | |
| 20260901100148 | 13 | 300 | 0.0 | 0.0 | 0.00 | 0.00 | 0.00 | 92 | |
| 20260901095946 | 13 | 300 | 0.0 | 0.0 | 0.00 | 0.00 | 0.00 | 93 | |
| 20260901095744 | 13 | 300 | 0.0 | 0.0 | 0.00 | 0.00 | 0.00 | 92 | |
| 20260901095544 | 13 | 300 | 0.0 | 0.0 | 0.00 | 0.00 | 0.00 | 92 | |
| 20260901095341 | 13 | 300 | 0.0 | 0.0 | 0.00 | 0.00 | 0.00 | 92 | |
| 20260901095139 | 13 | 300 | 0.0 | 0.0 | 0.00 | 0.00 | 0.00 | 92 | |
| 20260901094937 | 13 | 300 | 0.0 | 0.0 | 0.00 | 0.00 | 0.00 | 91 | |
| 20260901094735 | 13 | 300 | 0.0 | 0.0 | 0.00 | 0.00 | 0.00 | 91 | |
| 20260901094533 | 13 | 300 | 0.0 | 0.0 | 0.00 | 0.00 | 0.00 | 91 | |
| 20260901094331 | 13 | 300 | 0.0 | 0.0 | 0.00 | 0.00 | 0.00 | 92 | |
| 20260901094129 | 13 | 300 | 0.0 | 0.0 | 0.00 | 0.00 | 0.00 | 92 | |
| 20260901093927 | 13 | 300 | 0.0 | 0.0 | 0.00 | 0.00 | 0.00 | 92 | |
| 20260901093725 | 13 | 300 | 0.0 | 0.0 | 0.00 | 0.00 | 0.00 | 92 | |
| 20260901093523 | 13 | 300 | 0.0 | 0.0 | 0.00 | 0.00 | 0.00 | 92 | |
| 20260901093324 | 13 | 300 | 0.0 | 0.0 | 0.00 | 0.00 | 0.00 | 92 | |
| 20260901093120 | 13 | 300 | 0.0 | 0.0 | 0.00 | 0.00 | 0.00 | 92 | |
| 20260901092918 | 13 | 300 | 0.0 | 0.0 | 0.00 | 0.00 | 0.00 | 92 | |
| 20260901092716 | 13 | 300 | 0.0 | 0.0 | 0.00 | 0.00 | 0.00 | 92 | |
| 20260901092514 | 13 | 300 | 0.0 | 0.0 | 0.00 | 0.00 | 0.00 | 92 | |
| 20260901092312 | 13 | 300 | 0.0 | 0.0 | 0.00 | 0.00 | 0.00 | 92 | |
| 20260901092110 | 13 | 300 | 0.0 | 0.0 | 0.00 | 0.00 | 0.00 | 92 | |
| 20260901091909 | 13 | 300 | 0.0 | 0.0 | 0.00 | 0.00 | 0.00 | 91 | |
| 20260901091706 | 13 | 300 | 0.0 | 0.0 | 0.00 | 0.00 | 0.00 | 91 | |
| 20260901091302 | 13 | 300 | 0.0 | 0.0 | 0.00 | 0.00 | 0.00 | 91 | |
| 20260901091101 | 13 | 300 | 0.0 | 0.0 | 0.00 | 0.00 | 0.00 | 91 | |
| 20260901090859 | 13 | 300 | 0.0 | 0.0 | 0.00 | 0.00 | 0.00 | 91 | |
| 20260901090657 | 13 | 300 | 0.0 | 0.0 | 0.00 | 0.00 | 0.00 | 91 | |
| 20260901090455 | 13 | 300 | 0.0 | 0.0 | 0.00 | 0.00 | 0.00 | 91 | |
| 20260901090253 | 13 | 300 | 0.0 | 0.0 | 0.00 | 0.00 | 0.00 | 91 | |
| 20260901090051 | 13 | 300 | 0.0 | 0.0 | 0.00 | 0.00 | 0.00 | 91 | |
| 20260901085849 | 13 | 300 | 0.0 | 0.0 | 0.00 | 0.00 | 0.00 | 91 | |
| 20260901085647 | 13 | 300 | 0.0 | 0.0 | 0.00 | 0.00 | 0.00 | 91 | |
| 20260901085445 | 13 | 300 | 0.0 | 0.0 | 0.00 | 0.00 | 0.00 | 91 | |
| 20260901085243 | 13 | 300 | 0.0 | 0.0 | 0.00 | 0.00 | 0.00 | 91 | |
| 20260901085041 | 13 | 300 | 0.0 | 0.0 | 0.00 | 0.00 | 0.00 | 91 | |
| 20260901084840 | 13 | 300 | 0.0 | 0.0 | 0.00 | 0.00 | 0.00 | 91 | |
| 20260901084638 | 13 | 300 | 0.0 | 0.0 | 0.00 | 0.00 | 0.00 | 91 | |
| 20260901084436 | 13 | 300 | 0.0 | 0.0 | 0.00 | 0.00 | 0.00 | 91 | |
| 20260901084234 | 13 | 300 | 0.0 | 3.2 | 0.00 | 0.00 | 0.00 | 91 | |
| 20260901084032 | 13 | 300 | 0.0 | 3.2 | 0.00 | 0.00 | 0.00 | 91 | |
| 20260901083830 | 13 | 300 | 0.0 | 3.2 | 0.00 | 0.00 | 0.00 | 91 | |
| 20260901083628 | 13 | 309 | 1.6 | 3.2 | 0.00 | 0.00 | 0.00 | 91 | |
| 20260901083426 | 13 | 316 | 1.6 | 3.2 | 0.00 | 0.00 | 0.00 | 91 | |
| 20260901083224 | 13 | 312 | 3.2 | 0.0 | 0.00 | 0.00 | 0.00 | 91 | |
| 20260901083022 | 13 | 272 | 0.0 | 0.0 | 0.00 | 0.00 | 0.00 | 91 | |
| 20260901082619 | 13 | 272 | 0.0 | 0.0 | 0.00 | 0.00 | 0.00 | 90 | |
| 20260901082417 | 13 | 272 | 0.0 | 0.0 | 0.00 | 0.00 | 0.00 | 90 | |
| 20260901082215 | 14 | 272 | 0.0 | 0.0 | 0.00 | 0.00 | 0.00 | 90 | |
| 20260901081811 | 14 | 272 | 0.0 | 0.0 | 0.00 | 0.00 | 0.00 | 90 | |
| 20260901081609 | 14 | 272 | 0.0 | 0.0 | 0.00 | 0.00 | 0.00 | 91 | |
| 20260901081407 | 14 | 272 | 0.0 | 0.0 | 0.00 | 0.00 | 0.00 | 91 | |
| 20260901081003 | 14 | 272 | 0.0 | 0.0 | 0.00 | 0.00 | 0.00 | 91 | |
| 20260901080803 | 14 | 272 | 0.0 | 0.0 | 0.00 | 0.00 | 0.00 | 91 | |
| 20260901080600 | 14 | 272 | 0.0 | 0.0 | 0.00 | 0.00 | 0.00 | 91 | |
| 20260901080358 | 14 | 272 | 0.0 | 0.0 | 0.00 | 0.00 | 0.00 | 90 | |
| 20260901075954 | 14 | 272 | 0.0 | 0.0 | 0.00 | 0.00 | 0.00 | 90 | |
| 20260901075752 | 14 | 272 | 0.0 | 0.0 | 0.00 | 0.00 | 0.00 | 90 | |
| 20260901075550 | 14 | 272 | 0.0 | 0.0 | 0.00 | 0.00 | 0.00 | 90 | |
| 20260901075348 | 13 | 272 | 0.0 | 0.0 | 0.00 | 0.00 | 0.00 | 90 | |
| 20260901075148 | 13 | 272 | 0.0 | 0.0 | 0.00 | 0.00 | 0.00 | 90 | |
| 20260901074944 | 13 | 272 | 0.0 | 0.0 | 0.00 | 0.00 | 0.00 | 90 | |
| 20260901074744 | 13 | 272 | 0.0 | 0.0 | 0.00 | 0.00 | 0.00 | 90 | |
| 20260901074542 | 13 | 272 | 0.0 | 0.0 | 0.00 | 0.00 | 0.00 | 90 | |
| 20260901074340 | 13 | 272 | 0.0 | 0.0 | 0.00 | 0.00 | 0.00 | 89 | |
| 20260901074138 | 13 | 272 | 0.0 | 0.0 | 0.00 | 0.00 | 0.00 | 89 | |
| 20260901073733 | 14 | 272 | 0.0 | 0.0 | 0.00 | 0.00 | 0.00 | 89 | |
| 20260901073533 | 14 | 272 | 0.0 | 0.0 | 0.00 | 0.00 | 0.00 | 89 | |
| 20260901073329 | 14 | 272 | 0.0 | 0.0 | 0.00 | 0.00 | 0.00 | 89 | |
| 20260901073127 | 14 | 272 | 0.0 | 0.0 | 0.00 | 0.00 | 0.00 | 89 | |
| 20260901072925 | 14 | 272 | 0.0 | 0.0 | 0.00 | 0.00 | 0.00 | 89 | |
| 20260901072723 | 14 | 272 | 0.0 | 0.0 | 0.00 | 0.00 | 0.00 | 89 | |
| 20260901072521 | 14 | 272 | 0.0 | 0.0 | 0.00 | 0.00 | 0.00 | 89 | |
| 20260901072320 | 14 | 272 | 0.0 | 0.0 | 0.00 | 0.00 | 0.00 | 89 | |
| 20260901072118 | 15 | 272 | 0.0 | 0.0 | 0.00 | 0.00 | 0.00 | 89 | |
| 20260901071916 | 15 | 272 | 0.0 | 0.0 | 0.00 | 0.00 | 0.00 | 90 | |
| 20260901071714 | 15 | 272 | 0.0 | 0.0 | 0.00 | 0.00 | 0.00 | 89 | |
| 20260901071512 | 15 | 272 | 0.0 | 0.0 | 0.00 | 0.00 | 0.00 | 89 | |
| 20260901071310 | 15 | 272 | 0.0 | 0.0 | 0.00 | 0.00 | 0.00 | 89 | |
| 20260901071108 | 15 | 272 | 0.0 | 0.0 | 0.00 | 0.00 | 0.00 | 89 | |
| 20260901070906 | 15 | 272 | 0.0 | 0.0 | 0.00 | 0.00 | 0.00 | 89 | |
| 20260901070704 | 15 | 272 | 0.0 | 0.0 | 0.00 | 0.00 | 0.00 | 89 | |
| 20260901070301 | 15 | 272 | 0.0 | 0.0 | 0.00 | 0.00 | 0.00 | 89 | |
| 20260901070059 | 15 | 272 | 0.0 | 0.0 | 0.00 | 0.00 | 0.00 | 89 | |
| 20260901065655 | 15 | 272 | 0.0 | 0.0 | 0.00 | 0.00 | 0.00 | 88 | |
| 20260901065453 | 15 | 272 | 0.0 | 0.0 | 0.00 | 0.00 | 0.00 | 88 | |
| 20260901065251 | 15 | 272 | 0.0 | 0.0 | 0.00 | 0.00 | 0.00 | 88 | |
| 20260901065051 | 15 | 272 | 0.0 | 0.0 | 0.00 | 0.00 | 0.00 | 88 | |
| 20260901064847 | 15 | 272 | 0.0 | 0.0 | 0.00 | 0.00 | 0.00 | 88 | |
| 20260901064645 | 15 | 272 | 0.0 | 0.0 | 0.00 | 0.00 | 0.00 | 88 | |
| 20260901064443 | 15 | 272 | 0.0 | 0.0 | 0.00 | 0.00 | 0.00 | 88 | |
| 20260901064242 | 15 | 272 | 0.0 | 0.0 | 0.00 | 0.00 | 0.00 | 88 | |
| 20260901064040 | 15 | 272 | 0.0 | 0.0 | 0.00 | 0.00 | 0.00 | 88 | |
| 20260901063838 | 15 | 272 | 0.0 | 0.0 | 0.00 | 0.00 | 0.00 | 88 | |
| 20260901063636 | 15 | 272 | 0.0 | 0.0 | 0.00 | 0.00 | 0.00 | 88 | |
| 20260901063434 | 15 | 272 | 0.0 | 0.0 | 0.00 | 0.00 | 0.00 | 88 | |
| 20260901063232 | 15 | 272 | 0.0 | 0.0 | 0.00 | 0.00 | 0.00 | 88 | |
| 20260901063030 | 15 | 272 | 0.0 | 0.0 | 0.00 | 0.00 | 0.00 | 88 | |
| 20260901062828 | 15 | 272 | 0.0 | 0.0 | 0.00 | 0.00 | 0.00 | 88 | |
| 20260901062626 | 15 | 272 | 0.0 | 0.0 | 0.00 | 0.00 | 0.00 | 88 | |
| 20260901062424 | 15 | 272 | 0.0 | 0.0 | 0.00 | 0.00 | 0.00 | 88 | |
| 20260901062222 | 15 | 272 | 0.0 | 0.0 | 0.00 | 0.00 | 0.00 | 87 | |
| 20260901062021 | 15 | 272 | 0.0 | 0.0 | 0.00 | 0.00 | 0.00 | 87 | |
| 20260901061617 | 15 | 272 | 0.0 | 0.0 | 0.00 | 0.00 | 0.00 | 87 | |
| 20260901061417 | 15 | 272 | 0.0 | 0.0 | 0.00 | 0.00 | 0.00 | 87 | |
| 20260901061213 | 15 | 272 | 0.0 | 0.0 | 0.00 | 0.00 | 0.00 | 87 | |
| 20260901061011 | 15 | 272 | 0.0 | 0.0 | 0.00 | 0.00 | 0.00 | 87 | |
| 20260901060809 | 15 | 272 | 0.0 | 0.0 | 0.00 | 0.00 | 0.00 | 87 | |
| 20260901060609 | 15 | 272 | 0.0 | 0.0 | 0.00 | 0.00 | 0.00 | 87 | |
| 20260901060405 | 15 | 272 | 0.0 | 0.0 | 0.00 | 0.00 | 0.00 | 87 | |
| 20260901060203 | 15 | 272 | 0.0 | 0.0 | 0.00 | 0.00 | 0.00 | 87 | |
| 20260901055800 | 15 | 272 | 0.0 | 0.0 | 0.00 | 0.00 | 0.00 | 87 | |
| 20260901055558 | 15 | 272 | 0.0 | 0.0 | 0.00 | 0.00 | 0.00 | 87 | |
| 20260901055357 | 15 | 272 | 0.0 | 0.0 | 0.00 | 0.00 | 0.00 | 86 | |
| 20260901055158 | 15 | 272 | 0.0 | 0.0 | 0.00 | 0.00 | 0.00 | 86 | |
| 20260901054952 | 15 | 272 | 0.0 | 0.0 | 0.00 | 0.00 | 0.00 | 86 | |
| 20260901054750 | 16 | 272 | 0.0 | 0.0 | 0.00 | 0.00 | 0.00 | 86 | |
| 20260901054548 | 16 | 272 | 0.0 | 0.0 | 0.00 | 0.00 | 0.00 | 86 | |
| 20260901054346 | 16 | 272 | 0.0 | 0.0 | 0.00 | 0.00 | 0.00 | 85 | |
| 20260901054144 | 16 | 272 | 0.0 | 0.0 | 0.00 | 0.00 | 0.00 | 85 | |
| 20260901053942 | 16 | 272 | 0.0 | 0.0 | 0.00 | 0.00 | 0.00 | 85 | |
| 20260901053741 | 16 | 272 | 0.0 | 0.0 | 0.00 | 0.00 | 0.00 | 85 | |
| 20260901053337 | 16 | 272 | 0.0 | 0.0 | 0.00 | 0.00 | 0.00 | 85 | |
| 20260901052933 | 16 | 272 | 0.0 | 0.0 | 0.00 | 0.00 | 0.00 | 85 | |
| 20260901052731 | 16 | 272 | 0.0 | 0.0 | 0.00 | 0.00 | 0.00 | 85 | |
| 20260901052529 | 16 | 272 | 0.0 | 0.0 | 0.00 | 0.00 | 0.00 | 85 | |
| 20260901052327 | 16 | 272 | 0.0 | 0.0 | 0.00 | 0.00 | 0.00 | 85 | |
| 20260901052125 | 16 | 272 | 0.0 | 0.0 | 0.00 | 0.00 | 0.00 | 85 | |
| 20260901051923 | 16 | 272 | 0.0 | 0.0 | 0.00 | 0.00 | 0.00 | 84 | |
| 20260901051721 | 16 | 272 | 0.0 | 0.0 | 0.00 | 0.00 | 0.00 | 84 | |
| 20260901051520 | 16 | 272 | 0.0 | 0.0 | 0.00 | 0.00 | 0.00 | 84 | |
| 20260901051318 | 16 | 272 | 0.0 | 0.0 | 0.00 | 0.00 | 0.00 | 84 | |
| 20260901051116 | 16 | 272 | 0.0 | 0.0 | 0.00 | 0.00 | 0.00 | 83 | |
| 20260901050914 | 17 | 272 | 0.0 | 0.0 | 0.00 | 0.00 | 0.00 | 83 | |
| 20260901050712 | 17 | 272 | 0.0 | 0.0 | 0.00 | 0.00 | 0.00 | 83 | |
| 20260901050510 | 17 | 272 | 0.0 | 0.0 | 0.00 | 0.00 | 0.00 | 83 | |
| 20260901050308 | 17 | 272 | 0.0 | 0.0 | 0.00 | 0.00 | 0.00 | 83 | |
| 20260901050106 | 17 | 272 | 0.0 | 0.0 | 0.00 | 0.00 | 0.00 | 83 | |
| 20260901045904 | 17 | 272 | 0.0 | 0.0 | 0.00 | 0.00 | 0.00 | 83 | |
| 20260901045702 | 17 | 272 | 0.0 | 0.0 | 0.00 | 0.00 | 0.00 | 84 | |
| 20260901045500 | 17 | 272 | 0.0 | 0.0 | 0.00 | 0.00 | 0.00 | 83 | |
| 20260901045259 | 17 | 272 | 0.0 | 0.0 | 0.00 | 0.00 | 0.00 | 84 | |
| 20260901045057 | 17 | 272 | 0.0 | 0.0 | 0.00 | 0.00 | 0.00 | 83 | |
| 20260901044855 | 17 | 272 | 0.0 | 0.0 | 0.00 | 0.00 | 0.00 | 83 | |
| 20260901044653 | 17 | 272 | 0.0 | 1.6 | 0.00 | 0.00 | 0.00 | 83 | |
| 20260901044451 | 17 | 272 | 0.0 | 1.6 | 0.00 | 0.00 | 0.00 | 83 | |
| 20260901044249 | 17 | 272 | 0.0 | 1.6 | 0.00 | 0.00 | 0.00 | 83 | |
| 20260901044047 | 17 | 272 | 0.0 | 4.8 | 0.00 | 0.00 | 0.00 | 82 | |
| 20260901043845 | 17 | 272 | 0.0 | 4.8 | 0.00 | 0.00 | 0.00 | 82 | |
| 20260901043643 | 17 | 286 | 3.2 | 0.0 | 0.00 | 0.00 | 0.00 | 82 | |
| 20260901043442 | 17 | 271 | 0.0 | 0.0 | 0.00 | 0.00 | 0.00 | 82 | |
| 20260901043240 | 17 | 271 | 0.0 | 0.0 | 0.00 | 0.00 | 0.00 | 81 | |
| 20260901043038 | 17 | 271 | 0.0 | 0.0 | 0.00 | 0.00 | 0.00 | 80 | |
| 20260901042636 | 17 | 271 | 0.0 | 0.0 | 0.00 | 0.00 | 0.00 | 80 | |
| 20260901042432 | 18 | 271 | 0.0 | 0.0 | 0.00 | 0.00 | 0.00 | 80 | |
| 20260901042230 | 18 | 271 | 0.0 | 1.6 | 0.00 | 0.00 | 0.00 | 79 | |
| 20260901042028 | 18 | 271 | 0.0 | 1.6 | 0.00 | 0.00 | 0.00 | 79 | |
| 20260901041826 | 18 | 271 | 0.0 | 1.6 | 0.00 | 0.00 | 0.00 | 79 | |
| 20260901041221 | 18 | 278 | 3.2 | 0.0 | 0.00 | 0.00 | 0.00 | 79 | |
| 20260901041019 | 18 | 278 | 0.0 | 0.0 | 0.00 | 0.00 | 0.00 | 79 | |
| 20260901040817 | 18 | 278 | 0.0 | 0.0 | 0.00 | 0.00 | 0.00 | 78 | |
| 20260901040615 | 18 | 278 | 0.0 | 0.0 | 0.00 | 0.00 | 0.00 | 78 | |
| 20260901040413 | 18 | 278 | 0.0 | 0.0 | 0.00 | 0.00 | 0.00 | 78 | |
| 20260901040211 | 18 | 278 | 0.0 | 0.0 | 0.00 | 0.00 | 0.00 | 78 | |
| 20260901040009 | 18 | 278 | 0.0 | 0.0 | 0.00 | 0.00 | 0.00 | 78 | |
| 20260901035807 | 18 | 278 | 0.0 | 0.0 | 0.00 | 0.00 | 0.00 | 77 | |
| 20260901035605 | 18 | 278 | 0.0 | 0.0 | 0.00 | 0.00 | 0.00 | 78 | |
| 20260901035403 | 18 | 278 | 0.0 | 0.0 | 0.00 | 0.00 | 0.00 | 77 | |
| 20260901035201 | 18 | 278 | 0.0 | 6.4 | 0.00 | 0.00 | 0.00 | 77 | |
| 20260901035000 | 18 | 278 | 0.0 | 6.4 | 0.00 | 0.00 | 0.00 | 77 | |
| 20260901034758 | 18 | 278 | 0.0 | 6.4 | 0.00 | 0.00 | 0.00 | 77 | |
| 20260901034556 | 18 | 281 | 0.0 | 1.6 | 0.00 | 0.00 | 0.00 | 77 | |
| 20260901034354 | 18 | 278 | 6.4 | 1.6 | 0.00 | 0.00 | 0.00 | 77 | |
| 20260901034152 | 18 | 251 | 0.0 | 0.0 | 0.00 | 0.00 | 0.00 | 76 | |
| 20260901033950 | 18 | 251 | 0.0 | 0.0 | 0.00 | 0.00 | 0.00 | 75 | |
| 20260901033748 | 18 | 251 | 0.0 | 0.0 | 0.00 | 0.00 | 0.00 | 75 | |
| 20260901033546 | 18 | 251 | 0.0 | 0.0 | 0.00 | 0.00 | 0.00 | 75 | |
| 20260901033344 | 18 | 251 | 0.0 | 0.0 | 0.00 | 0.00 | 0.00 | 75 | |
| 20260901033142 | 18 | 251 | 0.0 | 0.0 | 0.00 | 0.00 | 0.00 | 75 | |
| 20260901032941 | 19 | 251 | 0.0 | 0.0 | 0.00 | 0.00 | 0.00 | 75 | |
| 20260901032739 | 19 | 251 | 0.0 | 0.0 | 0.00 | 0.00 | 0.00 | 74 | |
| 20260901032537 | 19 | 251 | 0.0 | 0.0 | 0.00 | 0.00 | 0.00 | 73 | |
| 20260901032335 | 19 | 251 | 0.0 | 0.0 | 0.00 | 0.00 | 0.00 | 73 | |
| 20260901032133 | 19 | 251 | 0.0 | 0.0 | 0.00 | 0.00 | 0.00 | 73 | |
| 20260901031931 | 19 | 251 | 0.0 | 0.0 | 0.00 | 0.00 | 0.00 | 73 | |
| 20260901031729 | 19 | 251 | 0.0 | 0.0 | 0.00 | 0.00 | 0.00 | 72 | |
| 20260901031527 | 19 | 251 | 0.0 | 0.0 | 0.00 | 0.00 | 0.00 | 72 | |
| 20260901031325 | 19 | 251 | 0.0 | 0.0 | 0.00 | 0.00 | 0.00 | 72 | |
| 20260901031131 | 19 | 251 | 0.0 | 0.0 | 0.00 | 0.00 | 0.00 | 72 | |
| 20260901031123 | 19 | 251 | 0.0 | 0.0 | 0.00 | 0.00 | 0.00 | 72 | |
| 20260901030921 | 20 | 251 | 0.0 | 0.0 | 0.00 | 0.00 | 0.00 | 72 | |
| 20260901030719 | 20 | 251 | 0.0 | 0.0 | 0.00 | 0.00 | 0.00 | 72 | |
| 20260901030518 | 20 | 251 | 0.0 | 0.0 | 0.00 | 0.00 | 0.00 | 72 | |
| 20260901030316 | 20 | 251 | 0.0 | 0.0 | 0.00 | 0.00 | 0.00 | 71 | |
| 20260901030114 | 20 | 251 | 0.0 | 0.0 | 0.00 | 0.00 | 0.00 | 71 | |
| 20260901025912 | 20 | 251 | 0.0 | 0.0 | 0.00 | 0.00 | 0.00 | 71 | |
| 20260901025710 | 20 | 251 | 0.0 | 0.0 | 0.00 | 0.00 | 0.00 | 70 | |
| 20260901025508 | 20 | 251 | 0.0 | 0.0 | 0.00 | 0.00 | 0.00 | 71 | |
| 20260901025306 | 20 | 251 | 0.0 | 0.0 | 0.00 | 0.00 | 0.00 | 70 | |
| 20260901025104 | 20 | 251 | 0.0 | 4.8 | 0.00 | 0.00 | 0.00 | 70 | |
| 20260901024902 | 20 | 251 | 0.0 | 4.8 | 0.00 | 0.00 | 0.00 | 70 | |
| 20260901024702 | 20 | 251 | 0.0 | 4.8 | 0.00 | 0.00 | 0.00 | 70 | |
| 20260901024459 | 20 | 292 | 3.2 | 4.8 | 0.00 | 0.00 | 0.00 | 70 | |
| 20260901024257 | 20 | 303 | 4.8 | 4.8 | 0.00 | 0.00 | 0.00 | 69 | |
| 20260901023853 | 20 | 208 | 0.0 | 0.0 | 0.00 | 0.00 | 0.00 | 68 | |
| 20260901023651 | 20 | 208 | 0.0 | 4.8 | 0.00 | 0.00 | 0.00 | 68 | |
| 20260901023449 | 20 | 208 | 0.0 | 4.8 | 0.00 | 0.00 | 0.00 | 68 | |
| 20260901023247 | 20 | 208 | 0.0 | 4.8 | 0.00 | 0.00 | 0.00 | 67 | |
| 20260901023047 | 20 | 222 | 0.0 | 9.7 | 0.00 | 0.00 | 0.00 | 67 | |
| 20260901022843 | 21 | 229 | 0.0 | 9.7 | 0.00 | 0.00 | 0.00 | 68 | |
| 20260901022641 | 21 | 285 | 4.8 | 11.3 | 0.00 | 0.00 | 0.00 | 67 | |
| 20260901022440 | 21 | 282 | 6.4 | 11.3 | 0.00 | 0.00 | 0.00 | 67 | |
| 20260901022237 | 21 | 268 | 4.8 | 9.7 | 0.00 | 0.00 | 0.00 | 66 | |
| 20260901022035 | 21 | 253 | 6.4 | 9.7 | 0.00 | 0.00 | 0.00 | 66 | |
| 20260901021833 | 21 | 277 | 3.2 | 9.7 | 0.00 | 0.00 | 0.00 | 65 | |
| 20260901021631 | 21 | 279 | 6.4 | 14.5 | 0.00 | 0.00 | 0.00 | 65 | |
| 20260901021429 | 21 | 265 | 8.0 | 14.5 | 0.00 | 0.00 | 0.00 | 64 | |
| 20260901021227 | 21 | 281 | 4.8 | 14.5 | 0.00 | 0.00 | 0.00 | 64 | |
| 20260901020824 | 21 | 274 | 8.0 | 14.5 | 0.00 | 0.00 | 0.00 | 63 | |
| 20260901020622 | 21 | 288 | 4.8 | 12.9 | 0.00 | 0.00 | 0.00 | 63 | |
| 20260901020420 | 22 | 292 | 6.4 | 12.9 | 0.00 | 0.00 | 0.00 | 62 | |
| 20260901020218 | 22 | 270 | 8.0 | 12.9 | 0.00 | 0.00 | 0.00 | 62 | |
| 20260901020016 | 22 | 265 | 6.4 | 12.9 | 0.00 | 0.00 | 0.00 | 62 | |
| 20260901015814 | 22 | 278 | 9.7 | 12.9 | 0.00 | 0.00 | 0.00 | 62 | |
| 20260901015612 | 22 | 265 | 12.9 | 11.3 | 0.00 | 0.00 | 0.00 | 60 | |
| 20260901015410 | 22 | 268 | 4.8 | 11.3 | 0.00 | 0.00 | 0.00 | 60 | |
| 20260901015208 | 22 | 284 | 6.4 | 12.9 | 0.00 | 0.00 | 0.00 | 60 | |
| 20260901015007 | 22 | 201 | 1.6 | 12.9 | 0.00 | 0.00 | 0.00 | 60 | |
| 20260901014807 | 22 | 277 | 3.2 | 12.9 | 0.00 | 0.00 | 0.00 | 59 | |
| 20260901014603 | 22 | 260 | 8.0 | 11.3 | 0.00 | 0.00 | 0.00 | 59 | |
| 20260901014400 | 22 | 277 | 8.0 | 11.3 | 0.00 | 0.00 | 0.00 | 59 | |
| 20260901014158 | 23 | 262 | 9.7 | 14.5 | 0.00 | 0.00 | 0.00 | 59 | |
| 20260901013956 | 22 | 262 | 4.8 | 14.5 | 0.00 | 0.00 | 0.00 | 59 | |
| 20260901013754 | 23 | 282 | 6.4 | 14.5 | 0.00 | 0.00 | 0.00 | 59 | |
| 20260901013552 | 23 | 267 | 9.7 | 14.5 | 0.00 | 0.00 | 0.00 | 58 | |
| 20260901013148 | 23 | 265 | 11.3 | 16.1 | 0.00 | 0.00 | 0.00 | 58 | |
| 20260901012946 | 23 | 270 | 8.0 | 16.1 | 0.00 | 0.00 | 0.00 | 57 | |
| 20260901012746 | 23 | 279 | 6.4 | 14.5 | 0.00 | 0.00 | 0.00 | 58 | |
| 20260901012544 | 23 | 268 | 12.9 | 14.5 | 0.00 | 0.00 | 0.00 | 57 | |
| 20260901012340 | 23 | 261 | 9.7 | 14.5 | 0.00 | 0.00 | 0.00 | 57 | |
| 20260901012140 | 23 | 244 | 9.7 | 14.5 | 0.00 | 0.00 | 0.00 | 57 | |
| 20260901011936 | 23 | 255 | 9.7 | 14.5 | 0.00 | 0.00 | 0.00 | 57 | |
| 20260901011736 | 23 | 260 | 8.0 | 14.5 | 0.00 | 0.00 | 0.00 | 57 | |
| 20260901011533 | 23 | 277 | 12.9 | 14.5 | 0.00 | 0.00 | 0.00 | 57 | |
| 20260901011131 | 23 | 262 | 11.3 | 19.3 | 0.00 | 0.00 | 0.00 | 57 | |
| 20260901010927 | 23 | 241 | 12.9 | 19.3 | 0.00 | 0.00 | 0.00 | 57 | |
| 20260901010726 | 23 | 286 | 11.3 | 20.9 | 0.00 | 0.00 | 0.00 | 56 | |
| 20260901005917 | 23 | 271 | 16.1 | 19.3 | 0.00 | 0.00 | 0.00 | 56 | |
| 20260901005715 | 23 | 254 | 11.3 | 19.3 | 0.00 | 0.00 | 0.00 | 56 | |
| 20260901005513 | 24 | 270 | 12.9 | 19.3 | 0.00 | 0.00 | 0.00 | 55 | |
| 20260901005311 | 24 | 281 | 8.0 | 19.3 | 0.00 | 0.00 | 0.00 | 55 | |
| 20260901005109 | 24 | 282 | 9.7 | 19.3 | 0.00 | 0.00 | 0.00 | 55 | |
| 20260901004907 | 24 | 279 | 11.3 | 19.3 | 0.00 | 0.00 | 0.00 | 55 | |
| 20260901004707 | 24 | 281 | 1.6 | 20.9 | 0.00 | 0.00 | 0.00 | 55 | |
| 20260901004503 | 24 | 265 | 12.9 | 20.9 | 0.00 | 0.00 | 0.00 | 54 | |
| 20260901004301 | 24 | 271 | 14.5 | 20.9 | 0.00 | 0.00 | 0.00 | 54 | |
| 20260901004059 | 24 | 267 | 17.7 | 20.9 | 0.00 | 0.00 | 0.00 | 56 | |
| 20260901003857 | 24 | 267 | 12.9 | 20.9 | 0.00 | 0.00 | 0.00 | 55 | |
| 20260901003656 | 24 | 271 | 12.9 | 25.7 | 0.00 | 0.00 | 0.00 | 55 | |
| 20260901003454 | 24 | 265 | 16.1 | 25.7 | 0.00 | 0.00 | 0.00 | 56 | |
| 20260901003253 | 24 | 255 | 11.3 | 25.7 | 0.00 | 0.00 | 0.00 | 56 | |
| 20260901003052 | 24 | 254 | 14.5 | 22.5 | 0.00 | 0.00 | 0.00 | 56 | |
| 20260901002848 | 24 | 265 | 16.1 | 22.5 | 0.00 | 0.00 | 0.00 | 55 | |
| 20260901002647 | 25 | 261 | 19.3 | 22.5 | 0.00 | 0.00 | 0.00 | 55 | |
| 20260901002444 | 24 | 267 | 14.5 | 22.5 | 0.00 | 0.00 | 0.00 | 56 | |
| 20260901002242 | 25 | 261 | 11.3 | 25.7 | 0.00 | 0.00 | 0.00 | 55 | |
| 20260901002042 | 25 | 250 | 11.3 | 25.7 | 0.00 | 0.00 | 0.00 | 55 | |
| 20260901001838 | 25 | 274 | 19.3 | 25.7 | 0.00 | 0.00 | 0.00 | 54 | |
| 20260901001436 | 25 | 264 | 11.3 | 29.0 | 0.00 | 0.00 | 0.00 | 56 | |
| 20260901001234 | 25 | 255 | 17.7 | 24.1 | 0.00 | 0.00 | 0.00 | 56 | |
| 20260901001030 | 25 | 275 | 25.7 | 24.1 | 0.00 | 0.00 | 0.00 | 55 | |
| 20260901000828 | 25 | 253 | 14.5 | 24.1 | 0.00 | 0.00 | 0.00 | 55 | |
| 20260901000626 | 25 | 246 | 12.9 | 27.4 | 0.00 | 0.00 | 0.00 | 55 | |
| 20260901000225 | 25 | 251 | 20.9 | 24.1 | 0.00 | 0.00 | 0.00 | 54 | |
| 20260901000023 | 25 | 260 | 19.3 | 24.1 | 0.00 | 0.00 | 0.00 | 53 | |
| 20260831235820 | 25 | 250 | 11.3 | 24.1 | 0.00 | 0.00 | 0.00 | 53 | |
| 20260831235618 | 25 | 270 | 16.1 | 27.4 | 0.00 | 0.00 | 0.00 | 53 | |
| 20260831235415 | 25 | 262 | 19.3 | 27.4 | 0.00 | 0.00 | 0.00 | 53 | |
| 20260831235213 | 25 | 254 | 17.7 | 25.7 | 0.00 | 0.00 | 0.00 | 53 | |
| 20260831235013 | 26 | 264 | 14.5 | 25.7 | 0.00 | 0.00 | 0.00 | 53 | |
| 20260831234809 | 25 | 257 | 11.3 | 25.7 | 0.00 | 0.00 | 0.00 | 54 | |
| 20260831234608 | 25 | 268 | 16.1 | 29.0 | 0.00 | 0.00 | 0.00 | 54 | |
| 20260831234405 | 25 | 265 | 12.9 | 29.0 | 0.00 | 0.00 | 0.00 | 54 | |
| 20260831234205 | 25 | 275 | 24.1 | 25.7 | 0.00 | 0.00 | 0.00 | 54 | |
| 20260831234001 | 26 | 264 | 19.3 | 25.7 | 0.00 | 0.00 | 0.00 | 53 | |
| 20260831233759 | 26 | 262 | 17.7 | 25.7 | 0.00 | 0.00 | 0.00 | 54 | |
| 20260831233357 | 26 | 248 | 20.9 | 24.1 | 0.00 | 0.00 | 0.00 | 53 | |
| 20260831233155 | 26 | 255 | 6.4 | 25.7 | 0.00 | 0.00 | 0.00 | 53 | |
| 20260831232951 | 26 | 279 | 11.3 | 25.7 | 0.00 | 0.00 | 0.00 | 54 | |
| 20260831232749 | 26 | 272 | 22.5 | 25.7 | 0.00 | 0.00 | 0.00 | 53 | |
| 20260831232548 | 26 | 248 | 20.9 | 22.5 | 0.00 | 0.00 | 0.00 | 52 | |
| 20260831232348 | 26 | 251 | 19.3 | 22.5 | 0.00 | 0.00 | 0.00 | 51 | |
| 20260831232144 | 26 | 265 | 8.0 | 20.9 | 0.00 | 0.00 | 0.00 | 51 | |
| 20260831231941 | 26 | 258 | 19.3 | 20.9 | 0.00 | 0.00 | 0.00 | 51 | |
| 20260831231741 | 26 | 251 | 12.9 | 24.1 | 0.00 | 0.00 | 0.00 | 51 | |
| 20260831231540 | 26 | 277 | 14.5 | 24.1 | 0.00 | 0.00 | 0.00 | 52 | |
| 20260831231336 | 26 | 267 | 14.5 | 24.1 | 0.00 | 0.00 | 0.00 | 54 | |
| 20260831231135 | 26 | 277 | 6.4 | 22.5 | 0.00 | 0.00 | 0.00 | 54 | |
| 20260831230933 | 26 | 258 | 17.7 | 22.5 | 0.00 | 0.00 | 0.00 | 53 | |
| 20260831230732 | 26 | 260 | 17.7 | 25.7 | 0.00 | 0.00 | 0.00 | 53 | |
| 20260831230530 | 26 | 264 | 12.9 | 25.7 | 0.00 | 0.00 | 0.00 | 54 | |
| 20260831230328 | 26 | 251 | 14.5 | 25.7 | 0.00 | 0.00 | 0.00 | 53 | |
| 20260831230126 | 26 | 277 | 16.1 | 25.7 | 0.00 | 0.00 | 0.00 | 53 | |
| 20260831225720 | 26 | 272 | 14.5 | 27.4 | 0.00 | 0.00 | 0.00 | 54 | |
| 20260831225518 | 26 | 272 | 17.7 | 27.4 | 0.00 | 0.00 | 0.00 | 54 | |
| 20260831225318 | 26 | 254 | 16.1 | 27.4 | 0.00 | 0.00 | 0.00 | 54 | |
| 20260831225114 | 26 | 254 | 17.7 | 22.5 | 0.00 | 0.00 | 0.00 | 54 | |
| 20260831224912 | 26 | 233 | 11.3 | 22.5 | 0.00 | 0.00 | 0.00 | 54 | |
| 20260831224514 | 26 | 260 | 17.7 | 22.5 | 0.00 | 0.00 | 0.00 | 53 | |
| 20260831224308 | 26 | 255 | 12.9 | 22.5 | 0.00 | 0.00 | 0.00 | 51 | |
| 20260831223903 | 26 | 248 | 9.7 | 19.3 | 0.00 | 0.00 | 0.00 | 51 | |
| 20260831223703 | 26 | 239 | 16.1 | 22.5 | 0.00 | 0.00 | 0.00 | 51 | |
| 20260831223501 | 26 | 255 | 12.9 | 22.5 | 0.00 | 0.00 | 0.00 | 51 | |
| 20260831223258 | 26 | 268 | 17.7 | 22.5 | 0.00 | 0.00 | 0.00 | 49 | |
| 20260831223057 | 26 | 272 | 8.0 | 25.7 | 0.00 | 0.00 | 0.00 | 51 | |
| 20260831222853 | 26 | 271 | 9.7 | 25.7 | 0.00 | 0.00 | 0.00 | 51 | |
| 20260831222651 | 26 | 250 | 14.5 | 20.9 | 0.00 | 0.00 | 0.00 | 49 | |
| 20260831222450 | 27 | 247 | 14.5 | 20.9 | 0.00 | 0.00 | 0.00 | 50 | |
| 20260831222249 | 27 | 264 | 12.9 | 20.9 | 0.00 | 0.00 | 0.00 | 51 | |
| 20260831221843 | 26 | 281 | 14.5 | 24.1 | 0.00 | 0.00 | 0.00 | 52 | |
| 20260831221641 | 26 | 254 | 12.9 | 32.2 | 0.00 | 0.00 | 0.00 | 52 | |
| 20260831221441 | 26 | 267 | 14.5 | 32.2 | 0.00 | 0.00 | 0.00 | 53 | |
| 20260831221239 | 26 | 255 | 22.5 | 30.6 | 0.00 | 0.00 | 0.00 | 51 | |
| 20260831221036 | 26 | 275 | 29.0 | 30.6 | 0.00 | 0.00 | 0.00 | 52 | |
| 20260831220835 | 26 | 233 | 19.3 | 30.6 | 0.00 | 0.00 | 0.00 | 53 | |
| 20260831220633 | 26 | 270 | 17.7 | 25.7 | 0.00 | 0.00 | 0.00 | 52 | |
| 20260831220431 | 26 | 271 | 24.1 | 25.7 | 0.00 | 0.00 | 0.00 | 52 | |
| 20260831220227 | 27 | 253 | 11.3 | 22.5 | 0.00 | 0.00 | 0.00 | 53 | |
| 20260831220027 | 26 | 255 | 19.3 | 22.5 | 0.00 | 0.00 | 0.00 | 54 | |
| 20260831215825 | 26 | 279 | 25.7 | 22.5 | 0.00 | 0.00 | 0.00 | 52 | |
| 20260831215622 | 26 | 278 | 14.5 | 25.7 | 0.00 | 0.00 | 0.00 | 53 | |
| 20260831215219 | 26 | 270 | 14.5 | 27.4 | 0.00 | 0.00 | 0.00 | 54 | |
| 20260831215016 | 26 | 265 | 12.9 | 27.4 | 0.00 | 0.00 | 0.00 | 53 | |
| 20260831214815 | 26 | 246 | 19.3 | 27.4 | 0.00 | 0.00 | 0.00 | 52 | |
| 20260831214412 | 26 | 267 | 14.5 | 22.5 | 0.00 | 0.00 | 0.00 | 53 | |
| 20260831214007 | 27 | 265 | 12.9 | 24.1 | 0.00 | 0.00 | 0.00 | 52 | |
| 20260831213804 | 27 | 255 | 17.7 | 24.1 | 0.00 | 0.00 | 0.00 | 52 | |
| 20260831213604 | 27 | 240 | 12.9 | 20.9 | 0.00 | 0.00 | 0.00 | 52 | |
| 20260831213402 | 27 | 291 | 12.9 | 20.9 | 0.00 | 0.00 | 0.00 | 52 | |
| 20260831212956 | 27 | 268 | 17.7 | 22.5 | 0.00 | 0.00 | 0.00 | 53 | |
| 20260831212755 | 26 | 255 | 17.7 | 22.5 | 0.00 | 0.00 | 0.00 | 55 | |
| 20260831212554 | 26 | 251 | 14.5 | 27.4 | 0.00 | 0.00 | 0.00 | 55 | |
| 20260831212352 | 26 | 271 | 8.0 | 27.4 | 0.00 | 0.00 | 0.00 | 55 | |
| 20260831212150 | 26 | 264 | 22.5 | 25.7 | 0.00 | 0.00 | 0.00 | 54 | |
| 20260831211948 | 26 | 236 | 17.7 | 25.7 | 0.00 | 0.00 | 0.00 | 55 | |
| 20260831211746 | 26 | 277 | 20.9 | 24.1 | 0.00 | 0.00 | 0.00 | 55 | |
| 20260831211544 | 26 | 275 | 12.9 | 24.1 | 0.00 | 0.00 | 0.00 | 56 | |
| 20260831211343 | 26 | 264 | 11.3 | 24.1 | 0.00 | 0.00 | 0.00 | 56 | |
| 20260831211140 | 26 | 270 | 16.1 | 30.6 | 0.00 | 0.00 | 0.00 | 55 | |
| 20260831210938 | 26 | 236 | 6.4 | 30.6 | 0.00 | 0.00 | 0.00 | 56 | |
| 20260831210736 | 26 | 268 | 14.5 | 25.7 | 0.00 | 0.00 | 0.00 | 56 | |
| 20260831210535 | 26 | 260 | 20.9 | 25.7 | 0.00 | 0.00 | 0.00 | 55 | |
| 20260831210331 | 26 | 254 | 14.5 | 25.7 | 0.00 | 0.00 | 0.00 | 56 | |
| 20260831210132 | 26 | 291 | 12.9 | 30.6 | 0.00 | 0.00 | 0.00 | 56 | |
| 20260831205929 | 26 | 268 | 19.3 | 30.6 | 0.00 | 0.00 | 0.00 | 55 | |
| 20260831205725 | 26 | 274 | 9.7 | 29.0 | 0.00 | 0.00 | 0.00 | 56 | |
| 20260831205523 | 26 | 279 | 16.1 | 29.0 | 0.00 | 0.00 | 0.00 | 56 | |
| 20260831205121 | 26 | 260 | 27.4 | 25.7 | 0.00 | 0.00 | 0.00 | 57 | |
| 20260831204919 | 26 | 275 | 19.3 | 25.7 | 0.00 | 0.00 | 0.00 | 56 | |
| 20260831204717 | 26 | 272 | 12.9 | 32.2 | 0.00 | 0.00 | 0.00 | 56 | |
| 20260831204515 | 26 | 274 | 11.3 | 32.2 | 0.00 | 0.00 | 0.00 | 56 | |
| 20260831204313 | 26 | 278 | 19.3 | 32.2 | 0.00 | 0.00 | 0.00 | 55 | |
| 20260831204112 | 26 | 270 | 19.3 | 25.7 | 0.00 | 0.00 | 0.00 | 55 | |
| 20260831203909 | 26 | 261 | 20.9 | 25.7 | 0.00 | 0.00 | 0.00 | 54 | |
| 20260831203707 | 27 | 258 | 16.1 | 25.7 | 0.00 | 0.00 | 0.00 | 54 | |
| 20260831203101 | 26 | 271 | 14.5 | 29.0 | 0.00 | 0.00 | 0.00 | 55 | |
| 20260831202859 | 26 | 260 | 20.9 | 29.0 | 0.00 | 0.00 | 0.00 | 55 | |
| 20260831202658 | 26 | 278 | 14.5 | 25.7 | 0.00 | 0.00 | 0.00 | 54 | |
| 20260831202254 | 26 | 282 | 19.3 | 25.7 | 0.00 | 0.00 | 0.00 | 54 | |
| 20260831201848 | 27 | 243 | 11.3 | 22.5 | 0.00 | 0.00 | 0.00 | 54 | |
| 20260831201648 | 26 | 260 | 20.9 | 22.5 | 0.00 | 0.00 | 0.00 | 54 | |
| 20260831201244 | 27 | 257 | 17.7 | 22.5 | 0.00 | 0.00 | 0.00 | 53 | |
| 20260831201042 | 27 | 272 | 11.3 | 22.5 | 0.00 | 0.00 | 0.00 | 52 | |
| 20260831200840 | 27 | 268 | 14.5 | 22.5 | 0.00 | 0.00 | 0.00 | 52 | |
| 20260831200638 | 27 | 255 | 11.3 | 25.7 | 0.00 | 0.00 | 0.00 | 52 | |
| 20260831200436 | 27 | 281 | 9.7 | 25.7 | 0.00 | 0.00 | 0.00 | 52 | |
| 20260831200234 | 27 | 237 | 16.1 | 24.1 | 0.00 | 0.00 | 0.00 | 52 | |
| 20260831200032 | 27 | 275 | 12.9 | 24.1 | 0.00 | 0.00 | 0.00 | 52 | |
| 20260831195830 | 27 | 268 | 14.5 | 24.1 | 0.00 | 0.00 | 0.00 | 52 | |
| 20260831195626 | 26 | 246 | 12.9 | 22.5 | 0.00 | 0.00 | 0.00 | 52 | |
| 20260831195224 | 26 | 237 | 16.1 | 24.1 | 0.00 | 0.00 | 0.00 | 52 | |
| 20260831195022 | 26 | 237 | 14.5 | 24.1 | 0.00 | 0.00 | 0.00 | 53 | |
| 20260831194818 | 26 | 234 | 12.9 | 24.1 | 0.00 | 0.00 | 0.00 | 53 | |
| 20260831194616 | 26 | 278 | 12.9 | 25.7 | 0.00 | 0.00 | 0.00 | 53 | |
| 20260831194416 | 26 | 254 | 14.5 | 25.7 | 0.00 | 0.00 | 0.00 | 52 | |
| 20260831194214 | 26 | 265 | 17.7 | 25.7 | 0.00 | 0.00 | 0.00 | 52 | |
| 20260831194012 | 27 | 260 | 19.3 | 25.7 | 0.00 | 0.00 | 0.00 | 51 | |
| 20260831193810 | 26 | 262 | 8.0 | 25.7 | 0.00 | 0.00 | 0.00 | 52 | |
| 20260831193607 | 26 | 246 | 16.1 | 27.4 | 0.00 | 0.00 | 0.00 | 52 | |
| 20260831193405 | 26 | 261 | 12.9 | 27.4 | 0.00 | 0.00 | 0.00 | 53 | |
| 20260831193205 | 26 | 246 | 17.7 | 27.4 | 0.00 | 0.00 | 0.00 | 53 | |
| 20260831193003 | 26 | 253 | 14.5 | 27.4 | 0.00 | 0.00 | 0.00 | 52 | |
| 20260831192355 | 27 | 275 | 14.5 | 24.1 | 0.00 | 0.00 | 0.00 | 51 | |
| 20260831191549 | 26 | 285 | 11.3 | 27.4 | 0.00 | 0.00 | 0.00 | 51 | |
| 20260831191347 | 26 | 246 | 17.7 | 27.4 | 0.00 | 0.00 | 0.00 | 51 | |
| 20260831191145 | 26 | 265 | 14.5 | 27.4 | 0.00 | 0.00 | 0.00 | 51 | |
| 20260831190943 | 26 | 268 | 19.3 | 27.4 | 0.00 | 0.00 | 0.00 | 51 | |
| 20260831190740 | 26 | 262 | 9.7 | 25.7 | 0.00 | 0.00 | 0.00 | 52 | |
| 20260831190539 | 26 | 248 | 16.1 | 25.7 | 0.00 | 0.00 | 0.00 | 52 | |
| 20260831190135 | 27 | 254 | 17.7 | 25.7 | 0.00 | 0.00 | 0.00 | 50 | |
| 20260831185527 | 27 | 254 | 17.7 | 24.1 | 0.00 | 0.00 | 0.00 | 50 | |
| 20260831185327 | 27 | 251 | 8.0 | 24.1 | 0.00 | 0.00 | 0.00 | 50 | |
| 20260831185125 | 27 | 248 | 14.5 | 24.1 | 0.00 | 0.00 | 0.00 | 50 | |
| 20260831184923 | 26 | 257 | 11.3 | 24.1 | 0.00 | 0.00 | 0.00 | 51 | |
| 20260831184520 | 27 | 262 | 14.5 | 16.1 | 0.00 | 0.00 | 0.00 | 49 | |
| 20260831184317 | 27 | 264 | 12.9 | 16.1 | 0.00 | 0.00 | 0.00 | 49 | |
| 20260831184115 | 27 | 209 | 3.2 | 17.7 | 0.00 | 0.00 | 0.00 | 50 | |
| 20260831183912 | 27 | 265 | 11.3 | 17.7 | 0.00 | 0.00 | 0.00 | 50 | |
| 20260831183712 | 27 | 267 | 11.3 | 19.3 | 0.00 | 0.00 | 0.00 | 51 | |
| 20260831183306 | 26 | 291 | 9.7 | 19.3 | 0.00 | 0.00 | 0.00 | 52 | |
| 20260831183105 | 26 | 298 | 9.7 | 17.7 | 0.00 | 0.00 | 0.00 | 52 | |
| 20260831182902 | 26 | 246 | 12.9 | 17.7 | 0.00 | 0.00 | 0.00 | 52 | |
| 20260831182702 | 26 | 275 | 9.7 | 17.7 | 0.00 | 0.00 | 0.00 | 52 | |
| 20260831182500 | 26 | 248 | 11.3 | 17.7 | 0.00 | 0.00 | 0.00 | 52 | |
| 20260831182258 | 26 | 292 | 6.4 | 17.7 | 0.00 | 0.00 | 0.00 | 52 | |
| 20260831182056 | 26 | 234 | 11.3 | 17.7 | 0.00 | 0.00 | 0.00 | 52 | |
| 20260831181854 | 26 | 268 | 8.0 | 17.7 | 0.00 | 0.00 | 0.00 | 53 | |
| 20260831181248 | 26 | 338 | 3.2 | 16.1 | 0.00 | 0.00 | 0.00 | 53 | |
| 20260831181046 | 26 | 286 | 14.5 | 16.1 | 0.00 | 0.00 | 0.00 | 53 | |
| 20260831180842 | 26 | 281 | 11.3 | 16.1 | 0.00 | 0.00 | 0.00 | 53 | |
| 20260831180642 | 26 | 293 | 9.7 | 14.5 | 0.00 | 0.00 | 0.00 | 52 | |
| 20260831180440 | 26 | 264 | 14.5 | 14.5 | 0.00 | 0.00 | 0.00 | 52 | |
| 20260831180239 | 26 | 261 | 9.7 | 14.5 | 0.00 | 0.00 | 0.00 | 54 | |
| 20260831180035 | 26 | 296 | 8.0 | 14.5 | 0.00 | 0.00 | 0.00 | 53 | |
| 20260831175833 | 26 | 284 | 8.0 | 14.5 | 0.00 | 0.00 | 0.00 | 53 | |
| 20260831175632 | 26 | 293 | 8.0 | 17.7 | 0.00 | 0.00 | 0.00 | 54 | |
| 20260831175431 | 26 | 272 | 8.0 | 17.7 | 0.00 | 0.00 | 0.00 | 54 | |
| 20260831175229 | 26 | 277 | 14.5 | 16.1 | 0.00 | 0.00 | 0.00 | 54 | |
| 20260831174825 | 26 | 267 | 6.4 | 16.1 | 0.00 | 0.00 | 0.00 | 55 | |
| 20260831174621 | 26 | 284 | 6.4 | 16.1 | 0.00 | 0.00 | 0.00 | 56 | |
| 20260831174421 | 26 | 284 | 8.0 | 16.1 | 0.00 | 0.00 | 0.00 | 55 | |
| 20260831174219 | 26 | 261 | 8.0 | 16.1 | 0.00 | 0.00 | 0.00 | 56 | |
| 20260831174015 | 26 | 279 | 8.0 | 16.1 | 0.00 | 0.00 | 0.00 | 56 | |
| 20260831173813 | 25 | 281 | 8.0 | 16.1 | 0.00 | 0.00 | 0.00 | 57 | |
| 20260831173613 | 25 | 265 | 11.3 | 14.5 | 0.00 | 0.00 | 0.00 | 57 | |
| 20260831173411 | 25 | 286 | 8.0 | 14.5 | 0.00 | 0.00 | 0.00 | 57 | |
| 20260831173208 | 25 | 267 | 8.0 | 14.5 | 0.00 | 0.00 | 0.00 | 57 | |
| 20260831173006 | 25 | 255 | 9.7 | 14.5 | 0.00 | 0.00 | 0.00 | 58 | |
| 20260831172805 | 25 | 261 | 11.3 | 14.5 | 0.00 | 0.00 | 0.00 | 59 | |
| 20260831172603 | 25 | 277 | 11.3 | 14.5 | 0.00 | 0.00 | 0.00 | 59 | |
| 20260831172157 | 25 | 299 | 3.2 | 14.5 | 0.00 | 0.00 | 0.00 | 60 | |
| 20260831171957 | 25 | 262 | 11.3 | 14.5 | 0.00 | 0.00 | 0.00 | 59 | |
| 20260831171554 | 25 | 272 | 4.8 | 12.9 | 0.00 | 0.00 | 0.00 | 59 | |
| 20260831171350 | 25 | 255 | 9.7 | 12.9 | 0.00 | 0.00 | 0.00 | 59 | |
| 20260831171150 | 25 | 289 | 1.6 | 11.3 | 0.00 | 0.00 | 0.00 | 60 | |
| 20260831170947 | 25 | 241 | 0.0 | 11.3 | 0.00 | 0.00 | 0.00 | 61 | |
| 20260831170746 | 24 | 258 | 4.8 | 11.3 | 0.00 | 0.00 | 0.00 | 61 | |
| 20260831170542 | 24 | 257 | 1.6 | 11.3 | 0.00 | 0.00 | 0.00 | 61 | |
| 20260831170342 | 24 | 250 | 3.2 | 11.3 | 0.00 | 0.00 | 0.00 | 62 | |
| 20260831170138 | 24 | 254 | 0.0 | 12.9 | 0.00 | 0.00 | 0.00 | 62 | |
| 20260831165936 | 23 | 243 | 8.0 | 12.9 | 0.00 | 0.00 | 0.00 | 62 | |
| 20260831165734 | 23 | 279 | 9.7 | 11.3 | 0.00 | 0.00 | 0.00 | 62 | |
| 20260831165532 | 23 | 265 | 1.6 | 11.3 | 0.00 | 0.00 | 0.00 | 63 | |
| 20260831165330 | 23 | 277 | 3.2 | 11.3 | 0.00 | 0.00 | 0.00 | 63 | |
| 20260831165128 | 23 | 275 | 3.2 | 11.3 | 0.00 | 0.00 | 0.00 | 64 | |
| 20260831164724 | 23 | 284 | 4.8 | 11.3 | 0.00 | 0.00 | 0.00 | 65 | |
| 20260831164522 | 23 | 265 | 8.0 | 11.3 | 0.00 | 0.00 | 0.00 | 66 | |
| 20260831164320 | 22 | 246 | 0.0 | 11.3 | 0.00 | 0.00 | 0.00 | 67 | |
| 20260831164120 | 22 | 285 | 4.8 | 12.9 | 0.00 | 0.00 | 0.00 | 67 | |
| 20260831163916 | 22 | 291 | 8.0 | 12.9 | 0.00 | 0.00 | 0.00 | 67 | |
| 20260831163716 | 22 | 292 | 6.4 | 12.9 | 0.00 | 0.00 | 0.00 | 68 | |
| 20260831163512 | 22 | 285 | 4.8 | 12.9 | 0.00 | 0.00 | 0.00 | 68 | |
| 20260831163310 | 22 | 257 | 8.0 | 12.9 | 0.00 | 0.00 | 0.00 | 69 | |
| 20260831162907 | 22 | 279 | 8.0 | 12.9 | 0.00 | 0.00 | 0.00 | 69 | |
| 20260831162705 | 21 | 268 | 11.3 | 11.3 | 0.00 | 0.00 | 0.00 | 70 | |
| 20260831162301 | 21 | 277 | 11.3 | 11.3 | 0.00 | 0.00 | 0.00 | 70 | |
| 20260831162059 | 21 | 293 | 3.2 | 12.9 | 0.00 | 0.00 | 0.00 | 71 | |
| 20260831161857 | 21 | 293 | 4.8 | 12.9 | 0.00 | 0.00 | 0.00 | 71 | |
| 20260831161655 | 21 | 302 | 4.8 | 11.3 | 0.00 | 0.00 | 0.00 | 72 | |
| 20260831161453 | 21 | 257 | 6.4 | 11.3 | 0.00 | 0.00 | 0.00 | 72 | |
| 20260831161251 | 21 | 275 | 8.0 | 11.3 | 0.00 | 0.00 | 0.00 | 73 | |
| 20260831160849 | 21 | 288 | 11.3 | 11.3 | 0.00 | 0.00 | 0.00 | 74 | |
| 20260831160645 | 21 | 289 | 8.0 | 12.9 | 0.00 | 0.00 | 0.00 | 74 | |
| 20260831160443 | 21 | 274 | 6.4 | 12.9 | 0.00 | 0.00 | 0.00 | 75 | |
| 20260831160241 | 20 | 268 | 11.3 | 14.5 | 0.00 | 0.00 | 0.00 | 75 | |
| 20260831160039 | 20 | 279 | 11.3 | 14.5 | 0.00 | 0.00 | 0.00 | 76 | |
| 20260831155635 | 20 | 299 | 8.0 | 11.3 | 0.00 | 0.00 | 0.00 | 77 | |
| 20260831155231 | 20 | 293 | 8.0 | 11.3 | 0.00 | 0.00 | 0.00 | 77 | |
| 20260831155029 | 20 | 281 | 4.8 | 11.3 | 0.00 | 0.00 | 0.00 | 77 | |
| 20260831154828 | 20 | 285 | 6.4 | 11.3 | 0.00 | 0.00 | 0.00 | 78 | |
| 20260831154626 | 20 | 265 | 6.4 | 11.3 | 0.00 | 0.00 | 0.00 | 79 | |
| 20260831154222 | 20 | 277 | 8.0 | 11.3 | 0.00 | 0.00 | 0.00 | 79 | |
| 20260831154020 | 20 | 265 | 9.7 | 11.3 | 0.00 | 0.00 | 0.00 | 80 | |
| 20260831153616 | 19 | 291 | 8.0 | 8.0 | 0.00 | 0.00 | 0.00 | 80 | |
| 20260831153414 | 19 | 293 | 4.8 | 8.0 | 0.00 | 0.00 | 0.00 | 80 | |
| 20260831153212 | 19 | 270 | 3.2 | 6.4 | 0.00 | 0.00 | 0.00 | 80 | |
| 20260831153010 | 19 | 281 | 6.4 | 6.4 | 0.00 | 0.00 | 0.00 | 81 | |
| 20260831152808 | 18 | 286 | 6.4 | 6.4 | 0.00 | 0.00 | 0.00 | 81 | |
| 20260831152607 | 18 | 285 | 1.6 | 4.8 | 0.00 | 0.00 | 0.00 | 82 | |
| 20260831152405 | 18 | 282 | 3.2 | 4.8 | 0.00 | 0.00 | 0.00 | 83 | |
| 20260831152203 | 18 | 285 | 3.2 | 0.0 | 0.00 | 0.00 | 0.00 | 83 | |
| 20260831152001 | 18 | 285 | 3.2 | 0.0 | 0.00 | 0.00 | 0.00 | 83 | |
| 20260831151759 | 18 | 261 | 0.0 | 0.0 | 0.00 | 0.00 | 0.00 | 82 | |
| 20260831151557 | 18 | 261 | 0.0 | 0.0 | 0.00 | 0.00 | 0.00 | 82 | |
| 20260831151355 | 18 | 261 | 0.0 | 0.0 | 0.00 | 0.00 | 0.00 | 82 | |
| 20260831150953 | 18 | 261 | 0.0 | 0.0 | 0.00 | 0.00 | 0.00 | 82 | |
| 20260831150749 | 18 | 261 | 0.0 | 0.0 | 0.00 | 0.00 | 0.00 | 82 | |
| 20260831150548 | 18 | 261 | 0.0 | 0.0 | 0.00 | 0.00 | 0.00 | 83 | |
| 20260831150346 | 18 | 261 | 0.0 | 0.0 | 0.00 | 0.00 | 0.00 | 84 | |
| 20260831150144 | 18 | 261 | 0.0 | 0.0 | 0.00 | 0.00 | 0.00 | 84 | |
| 20260831145942 | 18 | 261 | 0.0 | 0.0 | 0.00 | 0.00 | 0.00 | 85 | |
| 20260831145740 | 18 | 261 | 0.0 | 0.0 | 0.00 | 0.00 | 0.00 | 85 | |
| 20260831145538 | 18 | 261 | 0.0 | 0.0 | 0.00 | 0.00 | 0.00 | 86 | |
| 20260831145134 | 17 | 261 | 0.0 | 0.0 | 0.00 | 0.00 | 0.00 | 86 | |
| 20260831144932 | 17 | 261 | 0.0 | 0.0 | 0.00 | 0.00 | 0.00 | 87 | |
| 20260831144730 | 17 | 261 | 0.0 | 0.0 | 0.00 | 0.00 | 0.00 | 88 | |
| 20260831144529 | 17 | 261 | 0.0 | 0.0 | 0.00 | 0.00 | 0.00 | 88 | |
| 20260831144328 | 17 | 261 | 0.0 | 0.0 | 0.00 | 0.00 | 0.00 | 89 | |
| 20260831143923 | 17 | 261 | 0.0 | 0.0 | 0.00 | 0.00 | 0.00 | 91 | |
| 20260831143723 | 17 | 261 | 0.0 | 0.0 | 0.00 | 0.00 | 0.00 | 91 | |
| 20260831143519 | 16 | 261 | 0.0 | 0.0 | 0.00 | 0.00 | 0.00 | 92 | |
| 20260831143317 | 16 | 261 | 0.0 | 0.0 | 0.00 | 0.00 | 0.00 | 92 | |
| 20260831143117 | 16 | 261 | 0.0 | 0.0 | 0.00 | 0.00 | 0.00 | 92 | |
| 20260831142713 | 16 | 261 | 0.0 | 0.0 | 0.00 | 0.00 | 0.00 | 93 | |
| 20260831142307 | 16 | 261 | 0.0 | 0.0 | 0.00 | 0.00 | 0.00 | 93 | |
| 20260831142106 | 16 | 261 | 0.0 | 0.0 | 0.00 | 0.00 | 0.00 | 93 | |
| 20260831141906 | 16 | 261 | 0.0 | 0.0 | 0.00 | 0.00 | 0.00 | 93 | |
| 20260831141500 | 16 | 261 | 0.0 | 0.0 | 0.00 | 0.00 | 0.00 | 93 |